Kuiper-00124

operational
NORAD ID: 65953 Int'l Des: 2025-228 Owner: KUIP Country: US Constellation: kuiper
NOTLE

About Kuiper-00124

Description loading...

Live Position

Loading 3D Globe...

Upcoming Passes

Altitude History

Altitude vs Time

uPlot chart will show altitude changes over time

Two-Line Element Set

1 65953U 25228G 25339.25002315 -.01004775 00000-0 -42802-1 0 9990
2 65953 51.8847 57.1735 0005387 357.2074 216.5100 15.25217880 5843
Epoch: Dec 5, 2025 • Age: 22 hours

Current Status

Altitude 511.7 km
Velocity 7.61 km/s
Sub-Earth Point -48.93°S, 151.26°W
Launch Date Oct 14, 2025
Age 0.1 years
Type internet

Technical Details

Classification Payload
Mass 490.00 kg
Dry Mass 490.00 kg
Total Mass 490.00 kg
Length 1.80 m
Diameter 0.70 m
Span 5.00 m
Shape Box + 2 pan
Manufacturer KUIP
Bus Type Kuiper
Phase Status In Orbit
Owner/State KUIP/US

Large Constellations

Loading constellations...